^^
Datos históricos de la estación: Murcia-Puente Tocinos
Diario Informe para Enero 18, 2019 Unidades:  Métrico    Inglés   Ambas
Diario Semanal Mensual Anual Configurable
  Máximo: Mínimo: Media:
Temperatura: 15.4 °C 5.1 °C 10.4 °C
Punto de rocio: 6.4 °C 0.8 °C 3 °C
Humedad: 80% 39% 62%
Velocidad viento: 9.7km/h 0.0km/h 4.8km/h
Racha viento: 14.8km/h - -
Viento- - SSW
Presión: 1019.0 hPa 1015.3 hPa -
Precipitación: 0.0 mm    
Historical Graphs
 
 
Tabla de datos para Enero 18, 2019
Hora Temperatura Punto de rocio Presión Viento Velocidad viento Racha viento Humedad Intensidad lluvia(por hora) Nubes
00:00 9.7 °C 3.2 °C 1017.7 hPa SSE 4.8 km/h 9.7 km/h 64% 0.0 mm CLR
00:05 9.5 °C 3.2 °C 1017.7 hPa SSE 5.8 km/h 7.4 km/h 65% 0.0 mm CLR
00:10 9.4 °C 3.2 °C 1017.7 hPa SSE 4.7 km/h 7.4 km/h 65% 0.0 mm CLR
00:15 9.3 °C 3.1 °C 1017.7 hPa SSE 4.7 km/h 9.3 km/h 65% 0.0 mm CLR
00:20 9.4 °C 3.2 °C 1017.5 hPa SSW 6.9 km/h 11.1 km/h 65% 0.0 mm CLR
00:25 9.4 °C 3.2 °C 1017.5 hPa SSW 6.9 km/h 9.3 km/h 65% 0.0 mm CLR
00:30 9.4 °C 3.2 °C 1017.5 hPa SSW 8.4 km/h 13.0 km/h 65% 0.0 mm CLR
00:35 9.3 °C 3.1 °C 1017.3 hPa SSW 8.4 km/h 9.3 km/h 65% 0.0 mm CLR
00:40 9.3 °C 3.1 °C 1017.3 hPa SSW 7.6 km/h 11.1 km/h 65% 0.0 mm CLR
00:45 9.3 °C 3.1 °C 1017.3 hPa SSW 7.6 km/h 9.3 km/h 65% 0.0 mm CLR
00:50 9.3 °C 3.1 °C 1017.4 hPa SSW 7.6 km/h 11.1 km/h 65% 0.0 mm CLR
00:55 9.3 °C 3.1 °C 1017.4 hPa SSW 7.6 km/h 11.9 km/h 65% 0.0 mm CLR
01:00 9.3 °C 3.1 °C 1017.4 hPa SW 9.7 km/h 14.5 km/h 65% 0.0 mm CLR
01:05 9.3 °C 2.8 °C 1017.2 hPa SW 8.7 km/h 11.9 km/h 64% 0.0 mm CLR
01:10 9.3 °C 2.8 °C 1017.2 hPa SW 8.7 km/h 9.3 km/h 64% 0.0 mm CLR
01:15 9.3 °C 2.8 °C 1017.2 hPa SW 8.7 km/h 11.1 km/h 64% 0.0 mm CLR
01:20 9.3 °C 3.1 °C 1017.1 hPa SW 8.0 km/h 9.7 km/h 65% 0.0 mm CLR
01:25 9.2 °C 2.9 °C 1017.1 hPa WSW 6.9 km/h 3.7 km/h 65% 0.0 mm CLR
01:30 9.2 °C 2.9 °C 1017.1 hPa WSW 3.2 km/h 3.7 km/h 65% 0.0 mm CLR
01:35 9.1 °C 2.9 °C 1017.2 hPa WSW 3.2 km/h 3.9 km/h 65% 0.0 mm CLR
01:40 9.1 °C 2.9 °C 1017.2 hPa WSW 2.3 km/h 5.6 km/h 65% 0.0 mm CLR
01:45 8.9 °C 2.9 °C 1017.2 hPa WSW 2.3 km/h 3.7 km/h 66% 0.0 mm CLR
01:50 8.9 °C 2.9 °C 1017.0 hPa WSW 2.9 km/h   66% 0.0 mm CLR
01:55 8.9 °C 2.9 °C 1017.0 hPa WSW 2.9 km/h 7.4 km/h 66% 0.0 mm CLR
02:00 8.9 °C 2.9 °C 1017.0 hPa WSW 3.2 km/h 9.7 km/h 66% 0.0 mm CLR
02:05 8.9 °C 2.9 °C 1016.9 hPa SSE 3.2 km/h 7.4 km/h 66% 0.0 mm CLR
02:10 8.9 °C 2.9 °C 1016.9 hPa SSE 5.0 km/h 5.6 km/h 66% 0.0 mm CLR
02:15 8.9 °C 2.9 °C 1016.9 hPa South 5.0 km/h 9.3 km/h 66% 0.0 mm CLR
02:20 8.9 °C 2.9 °C 1017.0 hPa SW 5.0 km/h 9.3 km/h 66% 0.0 mm CLR
02:25 8.8 °C 2.8 °C 1017.0 hPa SW 5.0 km/h 11.1 km/h 66% 0.0 mm CLR
02:30 8.9 °C 2.9 °C 1017.0 hPa SW 6.9 km/h 11.1 km/h 66% 0.0 mm CLR
02:35 8.9 °C 2.9 °C 1017.1 hPa SSW 6.9 km/h 9.3 km/h 66% 0.0 mm CLR
02:40 8.8 °C 2.8 °C 1017.1 hPa SSW 6.4 km/h 7.4 km/h 66% 0.0 mm CLR
02:45 8.8 °C 2.8 °C 1017.1 hPa SSW 6.4 km/h 9.3 km/h 66% 0.0 mm CLR
02:50 8.8 °C 2.8 °C 1017.1 hPa SSW 5.8 km/h 9.3 km/h 66% 0.0 mm CLR
02:55 8.7 °C 2.7 °C 1017.1 hPa SSW 5.8 km/h 9.3 km/h 66% 0.0 mm CLR
03:00 8.7 °C 2.7 °C 1017.1 hPa SSW 8.0 km/h 9.7 km/h 66% 0.0 mm CLR
03:05 8.7 °C 2.7 °C 1017.1 hPa SSW 6.9 km/h 9.3 km/h 66% 0.0 mm CLR
03:10 8.6 °C 2.8 °C 1017.1 hPa SW 6.9 km/h 7.6 km/h 67% 0.0 mm CLR
03:15 8.5 °C 2.7 °C 1017.1 hPa SSW 6.9 km/h 9.3 km/h 67% 0.0 mm CLR
03:20 8.4 °C 2.6 °C 1017.2 hPa SW 6.4 km/h 13.0 km/h 67% 0.0 mm CLR
03:25 8.6 °C 2.8 °C 1017.2 hPa SSW 6.4 km/h 9.3 km/h 67% 0.0 mm CLR
03:30 8.4 °C 2.6 °C 1017.2 hPa South 7.6 km/h 7.4 km/h 67% 0.0 mm CLR
03:35 8.2 °C 2.7 °C 1017.2 hPa South 7.6 km/h 9.3 km/h 68% 0.0 mm CLR
03:40 8.1 °C 2.8 °C 1017.2 hPa South 6.9 km/h 9.3 km/h 69% 0.0 mm CLR
03:45 7.9 °C 2.6 °C 1017.2 hPa South 6.9 km/h 9.5 km/h 69% 0.0 mm CLR
03:50 7.9 °C 2.8 °C 1017.3 hPa South 6.4 km/h 9.3 km/h 70% 0.0 mm CLR
03:55 7.8 °C 2.7 °C 1017.3 hPa South 6.4 km/h 9.3 km/h 70% 0.0 mm CLR
04:00 7.7 °C 2.6 °C 1017.3 hPa South 8.0 km/h 9.7 km/h 70% 0.0 mm CLR
04:05 7.6 °C 2.7 °C 1017.3 hPa SW 6.4 km/h 9.3 km/h 71% 0.0 mm CLR
04:10 7.6 °C 2.7 °C 1017.3 hPa SSW 6.4 km/h 9.3 km/h 71% 0.0 mm CLR
04:15 7.4 °C 2.7 °C 1017.3 hPa SSW 6.4 km/h 8.4 km/h 72% 0.0 mm CLR
04:20 7.3 °C 2.6 °C 1017.3 hPa SW 6.4 km/h 7.4 km/h 72% 0.0 mm CLR
04:25 7.3 °C 2.6 °C 1017.3 hPa SW 6.4 km/h 7.4 km/h 72% 0.0 mm CLR
04:30 7.3 °C 2.6 °C 1017.3 hPa South 5.8 km/h 7.6 km/h 72% 0.0 mm CLR
04:35 7.2 °C 2.5 °C 1017.3 hPa South 5.8 km/h 9.3 km/h 72% 0.0 mm CLR
04:40 7.1 °C 2.4 °C 1017.3 hPa SSW 5.8 km/h 7.4 km/h 72% 0.0 mm CLR
04:45 7.1 °C 2.4 °C 1017.3 hPa SSW 5.8 km/h 9.3 km/h 72% 0.0 mm CLR
04:50 7.1 °C 2.4 °C 1017.3 hPa SW 5.8 km/h 7.4 km/h 72% 0.0 mm CLR
04:55 7.1 °C 2.4 °C 1017.3 hPa WSW 5.8 km/h 8.4 km/h 72% 0.0 mm CLR
05:00 7.1 °C 2.4 °C 1017.3 hPa WSW 4.8 km/h 8.0 km/h 72% 0.0 mm CLR
05:05 7.1 °C 2.4 °C 1017.3 hPa West 5.0 km/h 7.4 km/h 72% 0.0 mm CLR
05:10 7.0 °C 2.3 °C 1017.3 hPa West 5.0 km/h 7.4 km/h 72% 0.0 mm CLR
05:15 6.9 °C 2.2 °C 1017.3 hPa WSW 5.0 km/h 9.3 km/h 72% 0.0 mm CLR
05:20 6.9 °C 2.2 °C 1017.4 hPa WSW 5.0 km/h 7.4 km/h 72% 0.0 mm CLR
05:25 6.9 °C 2.2 °C 1017.4 hPa WSW 5.0 km/h 7.4 km/h 72% 0.0 mm CLR
05:30 6.9 °C 2.2 °C 1017.4 hPa WSW 4.7 km/h 7.4 km/h 72% 0.0 mm CLR
05:35 7.1 °C 2.4 °C 1017.4 hPa WSW 4.7 km/h 11.1 km/h 72% 0.0 mm CLR
05:40 7.1 °C 2.4 °C 1017.4 hPa WSW 6.4 km/h 7.4 km/h 72% 0.0 mm CLR
05:45 7.1 °C 2.4 °C 1017.4 hPa WSW 6.4 km/h 5.6 km/h 72% 0.0 mm CLR
05:50 7.1 °C 2.4 °C 1017.5 hPa West 4.7 km/h 7.4 km/h 72% 0.0 mm CLR
05:55 7.0 °C 2.5 °C 1017.5 hPa WSW 4.7 km/h 7.4 km/h 73% 0.0 mm CLR
06:00 6.9 °C 2.4 °C 1017.5 hPa WSW 4.8 km/h 9.7 km/h 73% 0.0 mm CLR
06:05 6.9 °C 2.4 °C 1017.5 hPa WSW 5.0 km/h 7.4 km/h 73% 0.0 mm CLR
06:10 6.9 °C 2.4 °C 1017.5 hPa WSW 5.0 km/h 7.4 km/h 73% 0.0 mm CLR
06:15 6.9 °C 2.4 °C 1017.5 hPa WSW 5.0 km/h 7.4 km/h 73% 0.0 mm CLR
06:20 6.9 °C 2.2 °C 1017.4 hPa East 4.7 km/h 7.4 km/h 72% 0.0 mm CLR
06:25 6.7 °C 2.2 °C 1017.4 hPa SSE 4.7 km/h 6.9 km/h 73% 0.0 mm CLR
06:30 6.3 °C 2.0 °C 1017.4 hPa SE 3.2 km/h 9.7 km/h 74% 0.0 mm CLR
06:35 6.1 °C 2.0 °C 1017.4 hPa South 4.7 km/h 7.4 km/h 75% 0.0 mm CLR
06:40 5.9 °C 2.0 °C 1017.4 hPa South 4.7 km/h 5.6 km/h 76% 0.0 mm CLR
06:45 5.8 °C 1.9 °C 1017.4 hPa South 4.7 km/h 3.7 km/h 76% 0.0 mm CLR
06:50 5.8 °C 2.1 °C 1017.6 hPa South 2.9 km/h 7.4 km/h 77% 0.0 mm CLR
06:55 5.9 °C 2.2 °C 1017.6 hPa West 2.9 km/h 7.4 km/h 77% 0.0 mm CLR
07:00 6.1 °C 2.1 °C 1017.6 hPa WSW 3.2 km/h 8.0 km/h 76% 0.0 mm CLR
07:05 6.1 °C 2.2 °C 1017.7 hPa West 4.7 km/h 7.4 km/h 76% 0.0 mm CLR
07:10 6.1 °C 2.2 °C 1017.7 hPa West 4.7 km/h 7.4 km/h 76% 0.0 mm CLR
07:15 6.2 °C 2.3 °C 1017.7 hPa SW 4.7 km/h 7.6 km/h 76% 0.0 mm CLR
07:20 6.3 °C 2.4 °C 1017.8 hPa SW 4.7 km/h 7.4 km/h 76% 0.0 mm CLR
07:25 6.3 °C 2.4 °C 1017.8 hPa SW 4.7 km/h 4.7 km/h 76% 0.0 mm CLR
07:30 6.4 °C 2.5 °C 1017.8 hPa SW 3.9 km/h 5.6 km/h 76% 0.0 mm CLR
07:35 6.4 °C 2.3 °C 1018.1 hPa SW 3.9 km/h 3.7 km/h 75% 0.0 mm CLR
07:40 6.3 °C 2.2 °C 1018.1 hPa SW 3.2 km/h   75% 0.0 mm CLR
07:45 6.3 °C 2.2 °C 1018.1 hPa WSW 3.2 km/h 7.4 km/h 75% 0.0 mm CLR
07:50 6.2 °C 2.1 °C 1018.2 hPa WSW 2.9 km/h 7.4 km/h 75% 0.0 mm CLR
07:55 6.2 °C 2.1 °C 1018.2 hPa WSW 2.9 km/h 5.6 km/h 75% 0.0 mm CLR
08:00 6.2 °C 2.1 °C 1018.2 hPa WSW 3.2 km/h 8.0 km/h 75% 0.0 mm CLR
08:05 6.2 °C 2.1 °C 1018.2 hPa WSW 3.9 km/h 5.6 km/h 75% 0.0 mm CLR
08:10 6.1 °C 2.0 °C 1018.2 hPa ESE 3.9 km/h 7.4 km/h 75% 0.0 mm CLR
08:15 5.8 °C 1.7 °C 1018.2 hPa ESE 3.9 km/h 5.6 km/h 75% 0.0 mm CLR
08:20 5.6 °C 1.7 °C 1018.4 hPa ESE 3.9 km/h 7.4 km/h 76% 0.0 mm CLR
08:25 5.3 °C 1.6 °C 1018.4 hPa ESE 3.9 km/h 7.4 km/h 77% 0.0 mm CLR
08:30 5.2 °C 1.7 °C 1018.4 hPa ESE 4.7 km/h 5.6 km/h 78% 0.0 mm CLR
08:35 5.1 °C 1.8 °C 1018.4 hPa South 4.7 km/h 5.8 km/h 79% 0.0 mm CLR
08:40 5.1 °C 1.8 °C 1018.4 hPa South 4.7 km/h 7.4 km/h 79% 0.0 mm CLR
08:45 5.2 °C 2.1 °C 1018.4 hPa South 4.7 km/h 7.4 km/h 80% 0.0 mm CLR
08:50 5.3 °C 1.9 °C 1018.4 hPa South 4.7 km/h 7.4 km/h 79% 0.0 mm CLR
08:55 5.4 °C 1.9 °C 1018.4 hPa South 4.7 km/h 3.9 km/h 78% 0.0 mm CLR
09:00 5.4 °C 1.9 °C 1018.4 hPa South 3.2 km/h 4.8 km/h 78% 0.0 mm CLR
09:05 5.4 °C 1.9 °C 1018.6 hPa South 3.9 km/h 5.6 km/h 78% 0.0 mm CLR
09:10 5.6 °C 2.1 °C 1018.6 hPa South 3.2 km/h 5.6 km/h 78% 0.0 mm CLR
09:15 5.7 °C 2.2 °C 1018.6 hPa South 3.2 km/h 5.6 km/h 78% 0.0 mm CLR
09:20 5.8 °C 2.3 °C 1018.6 hPa South 3.2 km/h 3.2 km/h 78% 0.0 mm CLR
09:25 6.2 °C 2.4 °C 1018.6 hPa SSE 3.2 km/h 5.6 km/h 77% 0.0 mm CLR
09:30 6.4 °C 2.3 °C 1018.6 hPa SSE 2.9 km/h 5.6 km/h 75% 0.0 mm CLR
09:35 6.6 °C 2.3 °C 1018.5 hPa SE 2.9 km/h 6.9 km/h 74% 0.0 mm CLR
09:40 6.7 °C 2.4 °C 1018.5 hPa SE 4.7 km/h 7.4 km/h 74% 0.0 mm CLR
09:45 6.6 °C 2.3 °C 1018.5 hPa SE 4.7 km/h 5.6 km/h 74% 0.0 mm CLR
09:50 6.7 °C 2.6 °C 1018.7 hPa SE 4.7 km/h   75% 0.0 mm CLR
09:55 7.1 °C 2.8 °C 1018.7 hPa SE 4.7 km/h   74% 0.0 mm CLR
10:00 7.4 °C 2.7 °C 1018.7 hPa Calm   3.2 km/h 72% 0.0 mm CLR
10:05 7.7 °C 2.9 °C 1018.6 hPa Calm   3.7 km/h 72% 0.0 mm CLR
10:10 8.0 °C 2.8 °C 1018.6 hPa Calm   3.7 km/h 70% 0.0 mm CLR
10:15 8.3 °C 2.9 °C 1018.6 hPa Calm   5.6 km/h 69% 0.0 mm CLR
10:20 8.6 °C 3.0 °C 1018.6 hPa SE 3.2 km/h 5.6 km/h 68% 0.0 mm CLR
10:25 8.8 °C 2.8 °C 1018.6 hPa South 3.2 km/h 7.4 km/h 66% 0.0 mm CLR
10:30 8.8 °C 2.3 °C 1018.6 hPa West 3.2 km/h 7.4 km/h 64% 0.0 mm CLR
10:35 8.8 °C 2.1 °C 1018.7 hPa WSW 3.2 km/h 9.3 km/h 63% 0.0 mm CLR
10:40 8.8 °C 2.1 °C 1018.7 hPa WNW 5.8 km/h 7.4 km/h 63% 0.0 mm CLR
10:45 8.9 °C 2.0 °C 1018.7 hPa West 5.8 km/h 11.1 km/h 62% 0.0 mm CLR
10:50 8.9 °C 2.2 °C 1018.9 hPa SW 5.8 km/h 7.4 km/h 63% 0.0 mm CLR
10:55 9.1 °C 2.2 °C 1018.9 hPa West 5.8 km/h 7.4 km/h 62% 0.0 mm CLR
11:00 9.2 °C 2.1 °C 1018.9 hPa WSW 4.8 km/h 8.0 km/h 61% 0.0 mm CLR
11:05 9.4 °C 2.0 °C 1019.0 hPa WSW 5.0 km/h 5.6 km/h 60% 0.0 mm CLR
11:10 9.6 °C 2.4 °C 1019.0 hPa WSW 3.9 km/h 3.7 km/h 61% 0.0 mm CLR
11:15 10.0 °C 2.1 °C 1019.0 hPa SE 3.9 km/h 7.6 km/h 58% 0.0 mm CLR
11:20 10.4 °C 2.2 °C 1018.9 hPa SE 3.9 km/h 7.4 km/h 57% 0.0 mm CLR
11:25 10.6 °C 2.2 °C 1018.9 hPa SSE 3.9 km/h 7.4 km/h 56% 0.0 mm CLR
11:30 10.7 °C 2.3 °C 1018.9 hPa South 5.0 km/h 7.4 km/h 56% 0.0 mm CLR
11:35 10.9 °C 2.2 °C 1018.7 hPa SSE 5.0 km/h 11.1 km/h 55% 0.0 mm CLR
11:40 10.8 °C 1.8 °C 1018.7 hPa SSW 5.8 km/h 7.4 km/h 54% 0.0 mm CLR
11:45 10.9 °C 2.2 °C 1018.7 hPa SSW 5.8 km/h 11.1 km/h 55% 0.0 mm CLR
11:50 10.9 °C 1.9 °C 1018.7 hPa SSW 6.4 km/h 3.7 km/h 54% 0.0 mm FEW
11:55 11.1 °C 2.1 °C 1018.7 hPa SSE 6.4 km/h 5.6 km/h 54% 0.0 mm FEW
12:00 11.3 °C 1.8 °C 1018.7 hPa South 3.2 km/h 9.7 km/h 52% 0.0 mm FEW
12:05 11.4 °C 1.9 °C 1018.6 hPa SSE 3.9 km/h 9.3 km/h 52% 0.0 mm FEW
12:10 11.6 °C 1.8 °C 1018.6 hPa SW 5.0 km/h 9.3 km/h 51% 0.0 mm FEW
12:15 11.8 °C 1.7 °C 1018.6 hPa South 5.0 km/h 11.9 km/h 50% 0.0 mm FEW
12:20 11.7 °C 1.6 °C 1018.4 hPa SE 5.8 km/h 7.4 km/h 50% 0.0 mm FEW
12:25 11.8 °C 1.7 °C 1018.4 hPa WSW 5.8 km/h 9.3 km/h 50% 0.0 mm FEW
12:30 11.9 °C 1.5 °C 1018.4 hPa South 5.8 km/h 8.4 km/h 49% 0.0 mm FEW
12:35 11.9 °C 1.8 °C 1018.2 hPa WNW 5.8 km/h 7.4 km/h 50% 0.0 mm FEW
12:40 11.9 °C 1.5 °C 1018.2 hPa SW 6.4 km/h 11.1 km/h 49% 0.0 mm FEW
12:45 11.9 °C 1.5 °C 1018.2 hPa WSW 6.4 km/h 13.0 km/h 49% 0.0 mm FEW
12:50 12.1 °C 1.7 °C 1018.0 hPa SSW 7.6 km/h 11.1 km/h 49% 0.0 mm FEW
12:55 12.3 °C 1.6 °C 1018.0 hPa West 7.6 km/h 7.4 km/h 48% 0.0 mm FEW
13:00 12.4 °C 1.7 °C 1018.0 hPa SW 4.8 km/h 9.7 km/h 48% 0.0 mm FEW
13:05 12.6 °C 1.6 °C 1017.8 hPa WNW 5.8 km/h 9.3 km/h 47% 0.0 mm FEW
13:10 12.7 °C 1.7 °C 1017.8 hPa West 5.8 km/h 7.6 km/h 47% 0.0 mm FEW
13:15 12.7 °C 1.7 °C 1017.8 hPa WSW 5.8 km/h 9.3 km/h 47% 0.0 mm FEW
13:20 12.7 °C 1.4 °C 1017.5 hPa South 5.0 km/h 13.0 km/h 46% 0.0 mm FEW
13:25 12.9 °C 1.6 °C 1017.5 hPa WSW 5.0 km/h 5.6 km/h 46% 0.0 mm FEW
13:30 13.0 °C 1.6 °C 1017.5 hPa SSW 6.4 km/h 9.3 km/h 46% 0.0 mm FEW
13:35 13.1 °C 1.4 °C 1017.2 hPa SW 6.4 km/h 11.1 km/h 45% 0.0 mm FEW
13:40 13.1 °C 1.4 °C 1017.2 hPa SW 5.8 km/h 11.1 km/h 45% 0.0 mm FEW
13:45 12.9 °C 1.2 °C 1017.2 hPa WSW 5.8 km/h 7.6 km/h 45% 0.0 mm FEW
13:50 13.1 °C 1.7 °C 1017.0 hPa SW 8.0 km/h 8.0 km/h 46% 0.0 mm FEW
13:55 13.3 °C 1.6 °C 1017.0 hPa NW 6.4 km/h 7.4 km/h 45% 0.0 mm FEW
14:00 13.4 °C 1.4 °C 1017.0 hPa WNW 4.8 km/h 11.3 km/h 44% 0.0 mm FEW
14:05 13.4 °C 1.4 °C 1016.8 hPa WNW 5.0 km/h 5.6 km/h 44% 0.0 mm FEW
14:10 13.4 °C 1.4 °C 1016.8 hPa WNW 3.9 km/h 3.7 km/h 44% 0.0 mm FEW
14:15 13.6 °C 1.6 °C 1016.8 hPa SE 3.9 km/h 3.7 km/h 44% 0.0 mm FEW
14:20 13.7 °C 1.3 °C 1016.6 hPa SE 2.9 km/h 3.9 km/h 43% 0.0 mm FEW
14:25 13.7 °C 1.0 °C 1016.6 hPa SW 2.9 km/h 7.4 km/h 42% 0.0 mm FEW
14:30 13.8 °C 1.1 °C 1016.6 hPa WSW 3.2 km/h 7.4 km/h 42% 0.0 mm FEW
14:35 13.9 °C 1.2 °C 1016.5 hPa WNW 3.2 km/h 9.5 km/h 42% 0.0 mm FEW
14:40 13.9 °C 0.8 °C 1016.5 hPa WNW 5.0 km/h 11.1 km/h 41% 0.0 mm FEW
14:45 13.9 °C 1.2 °C 1016.5 hPa NNW 5.0 km/h 3.7 km/h 42% 0.0 mm FEW
14:50 14.2 °C 1.4 °C 1016.2 hPa West 4.7 km/h 3.9 km/h 42% 0.0 mm FEW
14:55 14.4 °C 1.3 °C 1016.2 hPa South 4.7 km/h 11.1 km/h 41% 0.0 mm FEW
15:00 14.4 °C 0.9 °C 1016.2 hPa SSE 4.8 km/h 11.3 km/h 40% 0.0 mm FEW
15:05 14.6 °C 1.1 °C 1016.0 hPa SSE 5.0 km/h 7.4 km/h 40% 0.0 mm FEW
15:10 14.7 °C 1.2 °C 1016.0 hPa WSW 4.7 km/h 13.0 km/h 40% 0.0 mm FEW
15:15 14.7 °C 1.2 °C 1016.0 hPa WSW 4.7 km/h 7.4 km/h 40% 0.0 mm FEW
15:20 14.8 °C 1.3 °C 1015.9 hPa West 5.8 km/h 7.4 km/h 40% 0.0 mm FEW
15:25 14.8 °C 0.9 °C 1015.9 hPa West 5.8 km/h 5.6 km/h 39% 0.0 mm FEW
15:30 14.8 °C 0.9 °C 1015.9 hPa SSE 3.9 km/h 9.3 km/h 39% 0.0 mm FEW
15:35 14.7 °C 1.2 °C 1015.7 hPa South 3.9 km/h 7.6 km/h 40% 0.0 mm FEW
15:40 14.7 °C 1.2 °C 1015.7 hPa South 7.6 km/h 9.5 km/h 40% 0.0 mm FEW
15:45 14.6 °C 1.1 °C 1015.7 hPa ESE 7.6 km/h 7.4 km/h 40% 0.0 mm FEW
15:50 14.6 °C 1.1 °C 1015.6 hPa SSW 6.9 km/h 7.6 km/h 40% 0.0 mm FEW
15:55 14.7 °C 1.6 °C 1015.6 hPa South 6.9 km/h 7.4 km/h 41% 0.0 mm FEW
16:00 14.8 °C 1.3 °C 1015.6 hPa SSW 4.8 km/h 8.0 km/h 40% 0.0 mm FEW
16:05 15.0 °C 1.5 °C 1015.5 hPa SSW 5.0 km/h 5.6 km/h 40% 0.0 mm FEW
16:10 15.2 °C 1.7 °C 1015.5 hPa WSW 3.9 km/h 7.4 km/h 40% 0.0 mm FEW
16:15 15.3 °C 1.8 °C 1015.5 hPa WSW 3.9 km/h 7.4 km/h 40% 0.0 mm FEW
16:20 15.3 °C 1.8 °C 1015.5 hPa WSW 3.9 km/h 3.7 km/h 40% 0.0 mm FEW
16:25 15.3 °C 1.8 °C 1015.5 hPa WSW 3.9 km/h   40% 0.0 mm FEW
16:30 15.4 °C 1.8 °C 1015.5 hPa Calm   3.7 km/h 40% 0.0 mm FEW
16:35 15.4 °C 1.8 °C 1015.4 hPa Calm   7.4 km/h 40% 0.0 mm FEW
16:40 15.2 °C 1.7 °C 1015.4 hPa West 3.2 km/h 7.4 km/h 40% 0.0 mm FEW
16:45 15.1 °C 1.6 °C 1015.4 hPa WNW 3.2 km/h 3.7 km/h 40% 0.0 mm FEW
16:50 15.1 °C 1.9 °C 1015.4 hPa WNW 3.2 km/h 1.9 km/h 41% 0.0 mm FEW
16:55 15.1 °C 1.9 °C 1015.4 hPa WNW 3.2 km/h 5.8 km/h 41% 0.0 mm FEW
17:00 15.1 °C 1.9 °C 1015.4 hPa WNW 3.2 km/h 8.0 km/h 41% 0.0 mm FEW
17:05 15.0 °C 1.8 °C 1015.3 hPa WNW 2.9 km/h 5.6 km/h 41% 0.0 mm FEW
17:10 14.9 °C 1.8 °C 1015.3 hPa WNW 3.2 km/h 8.0 km/h 41% 0.0 mm FEW
17:15 14.8 °C 1.7 °C 1015.3 hPa WNW 2.9 km/h   41% 0.0 mm FEW
17:20 14.8 °C 1.7 °C 1015.3 hPa WNW 2.9 km/h 1.9 km/h 41% 0.0 mm FEW
17:25 14.8 °C 2.0 °C 1015.3 hPa WNW 2.9 km/h 7.4 km/h 42% 0.0 mm FEW
17:30 14.7 °C 1.9 °C 1015.3 hPa SW 2.9 km/h 7.4 km/h 42% 0.0 mm FEW
17:35 14.7 °C 2.2 °C 1015.3 hPa SE 2.9 km/h 7.4 km/h 43% 0.0 mm FEW
17:40 14.6 °C 2.2 °C 1015.3 hPa SE 5.0 km/h 7.4 km/h 43% 0.0 mm FEW
17:45 14.4 °C 2.3 °C 1015.3 hPa SSE 5.0 km/h 9.3 km/h 44% 0.0 mm FEW
17:50 14.4 °C 2.6 °C 1015.3 hPa SSE 4.8 km/h 9.7 km/h 45% 0.0 mm FEW
17:55 14.3 °C 2.5 °C 1015.3 hPa SSE 5.8 km/h 7.4 km/h 45% 0.0 mm FEW
18:00 14.2 °C 2.4 °C 1015.3 hPa SSE 4.8 km/h 9.7 km/h 45% 0.0 mm FEW
18:05 14.1 °C 2.7 °C 1015.3 hPa SE 5.0 km/h 8.7 km/h 46% 0.0 mm FEW
18:10 14.0 °C 2.8 °C 1015.3 hPa SSE 5.8 km/h 7.4 km/h 47% 0.0 mm FEW
18:15 13.9 °C 3.1 °C 1015.3 hPa South 5.8 km/h 11.1 km/h 48% 0.0 mm FEW
18:20 13.9 °C 3.3 °C 1015.3 hPa South 6.4 km/h 7.4 km/h 49% 0.0 mm CLR
18:25 13.8 °C 3.8 °C 1015.3 hPa SSE 6.4 km/h 7.4 km/h 51% 0.0 mm CLR
18:30 13.7 °C 4.0 °C 1015.3 hPa SSE 6.4 km/h 7.4 km/h 52% 0.0 mm CLR
18:35 13.7 °C 4.6 °C 1015.4 hPa SSE 6.4 km/h 7.4 km/h 54% 0.0 mm CLR
18:40 13.6 °C 5.0 °C 1015.4 hPa SE 5.0 km/h 7.6 km/h 56% 0.0 mm CLR
18:45 13.6 °C 5.5 °C 1015.4 hPa SSE 5.0 km/h 11.1 km/h 58% 0.0 mm CLR
18:50 13.5 °C 5.6 °C 1015.4 hPa SSE 5.8 km/h 9.5 km/h 59% 0.0 mm CLR
18:55 13.4 °C 5.8 °C 1015.4 hPa SSE 5.8 km/h 7.4 km/h 60% 0.0 mm CLR
19:00 13.4 °C 6.0 °C 1015.4 hPa SSE 8.0 km/h 9.7 km/h 61% 0.0 mm CLR
19:05 13.3 °C 5.9 °C 1015.5 hPa SSW 6.4 km/h 9.3 km/h 61% 0.0 mm CLR
19:10 13.3 °C 6.2 °C 1015.5 hPa SSW 6.4 km/h 11.1 km/h 62% 0.0 mm CLR
19:15 13.3 °C 6.2 °C 1015.5 hPa SW 6.4 km/h 7.4 km/h 62% 0.0 mm CLR
19:20 13.3 °C 6.4 °C 1015.6 hPa SW 6.4 km/h 14.8 km/h 63% 0.0 mm CLR
19:25 13.2 °C 6.1 °C 1015.6 hPa WSW 6.4 km/h 9.3 km/h 62% 0.0 mm CLR
19:30 13.1 °C 6.0 °C 1015.6 hPa SSW 7.6 km/h 13.0 km/h 62% 0.0 mm CLR
19:35 13.1 °C 6.0 °C 1015.6 hPa SW 7.6 km/h 7.4 km/h 62% 0.0 mm CLR
19:40 13.0 °C 5.9 °C 1015.6 hPa WSW 6.9 km/h 9.3 km/h 62% 0.0 mm CLR
19:45 12.9 °C 6.0 °C 1015.6 hPa WNW 6.9 km/h 9.3 km/h 63% 0.0 mm CLR
19:50 12.8 °C 5.9 °C 1015.8 hPa WNW 5.0 km/h 8.4 km/h 63% 0.0 mm CLR
19:55 12.7 °C 6.1 °C 1015.8 hPa WNW 5.0 km/h 9.3 km/h 64% 0.0 mm CLR
20:00 12.7 °C 6.1 °C 1015.8 hPa West 4.8 km/h 9.7 km/h 64% 0.0 mm CLR
20:05 12.6 °C 6.2 °C 1015.8 hPa West 5.0 km/h 7.4 km/h 65% 0.0 mm CLR
20:10 12.6 °C 6.2 °C 1015.8 hPa WSW 4.7 km/h 9.3 km/h 65% 0.0 mm CLR
20:15 12.5 °C 6.1 °C 1015.8 hPa WSW 4.7 km/h 9.3 km/h 65% 0.0 mm CLR
20:20 12.5 °C 6.1 °C 1015.9 hPa WSW 5.8 km/h 7.6 km/h 65% 0.0 mm CLR
20:25 12.5 °C 6.1 °C 1015.9 hPa WSW 5.8 km/h 7.4 km/h 65% 0.0 mm CLR
20:30 12.5 °C 6.1 °C 1015.9 hPa WSW 4.7 km/h 7.4 km/h 65% 0.0 mm CLR
20:35 12.4 °C 6.0 °C 1016.0 hPa West 4.7 km/h 9.3 km/h 65% 0.0 mm CLR
20:40 12.4 °C 6.0 °C 1016.0 hPa West 5.0 km/h 5.6 km/h 65% 0.0 mm CLR
20:45 12.4 °C 6.0 °C 1016.0 hPa West 5.0 km/h 5.6 km/h 65% 0.0 mm CLR
20:50 12.3 °C 5.9 °C 1016.1 hPa West 3.9 km/h 5.6 km/h 65% 0.0 mm CLR
20:55 12.3 °C 5.9 °C 1016.1 hPa West 3.9 km/h 3.7 km/h 65% 0.0 mm CLR
21:00 12.3 °C 5.9 °C 1016.1 hPa West 3.2 km/h 3.2 km/h 65% 0.0 mm CLR
21:05 12.3 °C 5.9 °C 1016.1 hPa West 2.9 km/h 2.9 km/h 65% 0.0 mm CLR
21:10 12.3 °C 5.9 °C 1016.1 hPa Calm   5.6 km/h 65% 0.0 mm CLR
21:15 12.3 °C 5.7 °C 1016.1 hPa Calm   5.6 km/h 64% 0.0 mm CLR
21:20 12.2 °C 6.1 °C 1016.0 hPa SSE 3.9 km/h 9.3 km/h 66% 0.0 mm CLR
21:25 12.0 °C 6.1 °C 1016.0 hPa SE 3.9 km/h 11.1 km/h 67% 0.0 mm CLR
21:30 11.8 °C 6.1 °C 1016.0 hPa SE 6.9 km/h 7.4 km/h 68% 0.0 mm CLR
21:35 11.7 °C 6.0 °C 1016.0 hPa SSW 6.9 km/h 9.3 km/h 68% 0.0 mm CLR
21:40 11.6 °C 6.1 °C 1016.0 hPa South 6.4 km/h 9.3 km/h 69% 0.0 mm CLR
21:45 11.5 °C 6.0 °C 1016.0 hPa South 6.4 km/h 9.3 km/h 69% 0.0 mm CLR
21:50 11.4 °C 5.9 °C 1016.1 hPa SSW 6.4 km/h 7.4 km/h 69% 0.0 mm CLR
21:55 11.5 °C 6.0 °C 1016.1 hPa SSW 6.4 km/h 1.9 km/h 69% 0.0 mm CLR
22:00 11.6 °C 6.1 °C 1016.1 hPa SSW 3.2 km/h 3.2 km/h 69% 0.0 mm CLR
22:05 11.6 °C 6.1 °C 1016.2 hPa SSW 3.2 km/h 5.8 km/h 69% 0.0 mm CLR
22:10 11.6 °C 6.1 °C 1016.2 hPa SSW 2.3 km/h 7.4 km/h 69% 0.0 mm CLR
22:15 11.7 °C 6.0 °C 1016.2 hPa SW 2.3 km/h 8.4 km/h 68% 0.0 mm CLR
22:20 11.7 °C 6.0 °C 1016.3 hPa SW 5.8 km/h 7.4 km/h 68% 0.0 mm CLR
22:25 11.8 °C 6.1 °C 1016.3 hPa SW 5.8 km/h 8.4 km/h 68% 0.0 mm CLR
22:30 11.8 °C 5.9 °C 1016.3 hPa SW 5.0 km/h 9.3 km/h 67% 0.0 mm CLR
22:35 11.8 °C 5.9 °C 1016.3 hPa SW 5.0 km/h 7.4 km/h 67% 0.0 mm CLR
22:40 11.8 °C 5.9 °C 1016.3 hPa SW 5.0 km/h 5.6 km/h 67% 0.0 mm CLR
22:45 11.8 °C 5.9 °C 1016.3 hPa SW 5.0 km/h 3.7 km/h 67% 0.0 mm CLR
22:50 11.8 °C 5.9 °C 1016.4 hPa SW 2.3 km/h   67% 0.0 mm CLR
22:55 11.7 °C 6.0 °C 1016.4 hPa SW 2.3 km/h 3.7 km/h 68% 0.0 mm CLR
23:00 11.6 °C 5.9 °C 1016.4 hPa Calm   3.2 km/h 68% 0.0 mm CLR
23:05 11.5 °C 6.0 °C 1016.6 hPa Calm     69% 0.0 mm CLR
23:10 11.4 °C 5.9 °C 1016.6 hPa Calm     69% 0.0 mm CLR
23:15 11.3 °C 5.8 °C 1016.6 hPa Calm   3.9 km/h 69% 0.0 mm CLR
23:20 11.3 °C 6.0 °C 1016.7 hPa SW 2.3 km/h 7.4 km/h 70% 0.0 mm CLR
23:25 11.2 °C 5.9 °C 1016.7 hPa SW 2.3 km/h 3.7 km/h 70% 0.0 mm CLR
23:30 11.2 °C 5.9 °C 1016.7 hPa SW 3.2 km/h 5.6 km/h 70% 0.0 mm CLR
23:35 11.2 °C 5.9 °C 1016.8 hPa SW 3.2 km/h 5.8 km/h 70% 0.0 mm CLR
23:40 11.2 °C 5.9 °C 1016.8 hPa SW 3.9 km/h 5.6 km/h 70% 0.0 mm CLR
23:45 11.2 °C 5.9 °C 1016.8 hPa SW 3.9 km/h 5.6 km/h 70% 0.0 mm CLR
23:50 11.2 °C 5.9 °C 1016.8 hPa SW 3.2 km/h 7.4 km/h 70% 0.0 mm CLR
23:55 11.1 °C 5.8 °C 1016.8 hPa SW 3.2 km/h 5.6 km/h 70% 0.0 mm CLR
Murcia-Puente Tocinos, España
Compliments of Weather Underground - 2.75 mb

La estación de MeteoMurcia.com, publica sus datos en los siguientes proyectos:

Weather Underground PWS IMURCIAP2 Meteoclimatic www.awekas.at

W3Counter
Web Analytics